Regional Weather Roundup
Issued by NWS

Home | Current Version | Previous Version | Text Only | Print | Product List | Glossary Off
Versions: 1 2 3 4 5 6 7 8 9 10 11 12 13 14 15 16 17 18 19 20 21 22 23 24 25 26 27 28 29 30 31 32 33 34 35 36 37 38 39 40 41 42 43 44 45 46 47 48 49 50

000
ASUS43 KDTX 191401
RWRMI
MICHIGAN HOURLY REGIONAL WEATHER ROUNDUP
NATIONAL WEATHER SERVICE DETROIT/PONTIAC MI
1000 AM EDT SAT APR 19 2014

NOTE: "FAIR" INDICATES FEW OR NO CLOUDS BELOW 12,000 FEET WITH NO
SIGNIFICANT WEATHER AND/OR OBSTRUCTION TO VISIBILITY.

MIZ047>049-052>055-059>063-066>070-074>076-081>083-191500-
SOUTHEAST LOWER MICHIGAN

CITY           SKY/WX    TMP DP  RH WIND       PRES   REMARKS
ADRIAN         SUNNY     43  29  57 E10       30.45R
ALMA           SUNNY     39  32  76 NE10      30.48S WCI  33
ANN ARBOR      SUNNY     43  29  57 E12       30.45R
BAD AXE        SUNNY     39  32  75 E12       30.49S WCI  32
CARO           SUNNY     42  34  74 E5        30.47F
DETROIT CITY   SUNNY     44  31  60 NE9       30.47S
DETROIT        MOSUNNY   43  30  60 NE7       30.47R
FLINT          SUNNY     43  31  62 E9        30.47S
GROSSE ILE     SUNNY     43  34  70 NE12      30.45R
HILLSDALE      SUNNY     43  30  60 NE9       30.42S
HOWELL         SUNNY     40  30  65 E8        30.45S WCI  35

CITY           SKY/WX    TMP DP  RH WIND       PRES   REMARKS
JACKSON        SUNNY     42  28  57 E6        30.44S
LAMBERTVILLE   SUNNY     45  32  61 E8        30.45S
LANSING        SUNNY     41  30  65 E12       30.46F
LAPEER         FAIR      39  32  76 E7        30.47S WCI  34
MASON          SUNNY     40  32  72 E8        30.46R WCI  35
MONROE         SUNNY     45  32  61 NE12      30.44R
MT. CLEMENS    SUNNY     42  32  69 E7        30.46R
PONTIAC        SUNNY     41  29  62 E10       30.45R
PORT HOPE        N/A     37  32  82 NE12      30.49R WCI  29
PORT HURON     SUNNY     39  34  81 NE9       30.48R WCI  33
TRI CITIES     PTSUNNY   41  33  73 NE10      30.50R
TROY           SUNNY     41  30  66 E8        30.48R
SAGINAW HB     SUNNY     41  34  75 E8        30.49R
YPSILANTI      SUNNY     46  29  51 NE12      30.46R
$$
MIZ043>046-050>051-056>058-064>065-071>073-077>080-191500-
SOUTHWEST LOWER MICHIGAN

CITY           SKY/WX    TMP DP  RH WIND       PRES   REMARKS
BATTLE CREEK   SUNNY     42  29  59 E9        30.43S
BENTON HARBOR  SUNNY     44  34  67 E13       30.40S
BIG RAPIDS     SUNNY     39  30  71 SE12      30.46S WCI  32
COLDWATER      SUNNY     42  30  62 E10       30.43S
FREMONT        FAIR      40  27  59 E8        30.44F WCI  35
HOLLAND        SUNNY     43  31  62 E15       30.44S
GRAND RAPIDS   MOSUNNY   42  30  62 E13       30.45S
IONIA          FAIR      39  30  70 E13       30.46S WCI  32
KALAMAZOO      SUNNY     43  29  57 E9        30.43S
LUDINGTON      MOSUNNY   39  31  71 E12       30.44F WCI  32
MARSHALL       SUNNY     41  29  63 E8        30.43S
MOUNT PLEASANT SUNNY     39  32  74 NE8       30.48S WCI  34
MUSKEGON       MOSUNNY   42  27  55 E13       30.44S
SOUTH HAVEN    SUNNY     43  32  64 E14       30.41S
$$
MIZ016>042-191500-
NORTHERN LOWER MICHIGAN

CITY           SKY/WX    TMP DP  RH WIND       PRES   REMARKS
ALPENA         SUNNY     38  27  64 E10       30.52R WCI  31
BEAVER ISLAND  MOSUNNY   34  32  94 E8        30.49S WCI  27
BELLAIRE       SUNNY     40  29  65 SE6       30.47F
CADILLAC       SUNNY     38  30  73 E15       30.43F WCI  29
CHARLEVOIX     MOSUNNY   37  31  78 E12       30.50F WCI  29
FRANKFORT      MOSUNNY   39  30  69 SE10      30.45F WCI  32
GAYLORD        SUNNY     36  27  69 SE9       30.46F WCI  29
GRAYLING       SUNNY     36  30  79 E7        30.48F WCI  30
HARBOR SPRINGS MOSUNNY   36  31  82 E8        30.49F WCI  29
HOUGHTON LAKE  SUNNY     38  29  70 E8        30.48S WCI  32
MANISTEE       MOSUNNY   37  27  65 SE9       30.45F WCI  31
OSCODA         SUNNY     40  31  68 E12       30.50F WCI  34
PELLSTON       MOSUNNY   33  28  81 SE8       30.51S WCI  26
ROGERS CITY    SUNNY     37  31  81 E8        30.54R WCI  30
TRAVERSE CITY  MOSUNNY   35  30  82 CALM      30.47F
$$
MIZ007>008-015-191500-
EASTERN UPPER MICHIGAN

CITY           SKY/WX    TMP DP  RH WIND       PRES   REMARKS
KINROSS        MOSUNNY   36  34  93 E12       30.51S WCI  27
MACKINAC ISLAN MOSUNNY   32  32  99 E6        30.50F WCI  26
NEWBERRY       SUNNY     32  29  89 SE12G17   30.47F WCI  23
S. S. MARIE    MOSUNNY   32  26  78 SE7       30.51R WCI  26
MUNISING         N/A     37  29  72 S10G18    30.42F WCI  30
$$
MIZ004>006-011>014-085-191500-
CENTRAL UPPER MICHIGAN

CITY           SKY/WX    TMP DP  RH WIND       PRES   REMARKS
MANISTIQUE     PTSUNNY   33  30  89 E9G17     30.47F WCI  25
ESCANABA       MOSUNNY   34  28  80 SE12      30.44F WCI  25
MENOMINEE      SUNNY     34  28  80 SE10      30.43F WCI  26
SAWYER-GWINN   SUNNY     32  28  86 S14       30.38F WCI  22
$$
MIZ001>003-009>011-084-191500-
WESTERN UPPER MICHIGAN

CITY           SKY/WX    TMP DP  RH WIND       PRES   REMARKS
IRON MOUNTAIN  MOSUNNY   34  24  67 SE13      30.36F WCI  25
HOUGHTON       CLOUDY    32  25  75 E13       30.32F WCI  22
COPPER HARBOR    N/A     33  28  81 S9        30.37S WCI  25
IRONWOOD       PTSUNNY   37  21  52 SE13G24   30.20S WCI  29
$$

ABBREVIATIONS USED IN REMARKS
   TC - TEMPERATURE IN CELSIUS
  WCI - WIND CHILL INDEX
   HX - HEAT INDEX
  VSB - VISIBILITY




USA.gov is the U.S. government's official web portal to all federal, state and local government web resources and services.